Theta_e
299 299 300 301 301 301 301 300 299 298 296 295 295 298 300 300 300 301 302 300 298 298 298 296 296 297 293 292 290 288 286 286 286 280 281 282 281 281 282 283 282 282 282
299 298 298 299 299 299 299 299 298 296 294 294 292 291 292 296 298 298 299 299 297 295 295 295 295 295 292 291 290 287 286 285 282 278 279 280 280 281 281 281 280 281 281
298 298 297 297 297 297 297 297 295 295 293 290 289 289 288 288 291 294 296 295 295 296 295 294 294 290 289 289 288 287 286 284 282 281 278 279 278 280 278 279 279 279 280
297 296 296 296 296 296 296 295 293 292 290 288 287 287 287 286 286 287 289 291 291 292 292 291 291 288 289 286 285 284 284 283 281 281 278 278 277 278 279 278 277 279 279
295 295 296 295 295 294 293 291 290 289 288 287 286 285 284 284 285 286 287 289 289 288 287 287 287 287 288 287 285 283 283 282 280 279 277 277 276 277 277 278 278 278 278
293 294 293 292 291 290 290 289 288 287 286 285 284 284 283 284 288 290 288 286 286 286 285 284 284 284 286 288 288 286 285 282 280 279 278 277 277 278 279 278 277 276 275
288 288 288 288 288 289 288 287 287 286 284 283 283 283 282 283 288 289 289 285 285 285 285 284 283 284 284 285 287 287 286 286 285 281 279 279 278 279 279 279 278 278 277
286 285 285 284 285 287 287 286 284 284 282 282 281 281 281 282 287 288 289 285 284 284 284 283 283 282 283 284 284 283 282 283 283 283 283 282 283 282 282 281 279 278 277
285 284 284 283 282 283 282 282 280 279 278 278 279 278 281 283 286 288 288 284 283 283 283 283 283 282 284 287 282 281 281 282 286 287 287 287 287 286 283 280 277 276 271
283 283 283 282 279 280 281 279 278 276 280 279 279 282 283 283 285 287 288 283 282 281 281 281 282 282 286 287 282 281 279 280 282 283 283 285 286 284 285 281 279 275 274
281 281 280 279 278 278 276 276 274 274 277 277 281 281 281 282 282 287 288 282 281 280 280 280 281 285 286 287 284 281 281 283 284 281 281 281 280 281 281 283 281 279 276
278 278 277 277 277 276 274 272 271 271 272 278 279 279 279 280 282 285 288 285 284 281 280 280 281 284 285 287 284 285 287 285 282 280 278 277 278 279 280 280 281 281 281
272 273 277 273 274 273 271 270 271 269 271 270 277 278 277 278 280 284 286 287 286 281 281 282 283 286 286 287 287 286 285 282 279 277 276 277 278 279 278 276 277 277 277
277 277 276 273 271 270 273 273 270 269 269 271 271 276 276 276 277 278 282 285 285 283 283 282 283 284 285 284 283 286 284 284 280 279 277 277 277 276 275 275 274 273 271
280 279 279 279 279 278 278 277 277 277 277 273 274 274 275 274 277 279 280 282 283 280 276 276 279 279 279 279 279 280 281 282 282 281 280 278 277 275 275 274 272 270 269
279 279 279 278 277 277 276 277 283 283 283 282 282 279 278 281 282 282 283 284 285 284 276 273 274 277 278 279 279 279 279 280 280 281 279 278 274 274 273 272 270 267 268
274 274 275 276 276 277 277 278 278 281 285 285 285 284 284 283 284 283 284 285 286 285 275 276 273 276 277 277 277 277 276 276 275 276 275 274 272 273 271 270 269 267 265
270 276 273 275 278 278 277 277 278 278 276 276 282 283 284 285 285 285 284 285 282 283 276 276 275 276 275 275 273 273 271 273 270 267 266 269 272 268 266 268 268 265 264
274 276 275 278 278 278 277 277 277 277 275 275 274 276 274 280 279 279 283 275 276 275 273 272 269 268 267 266 267 267 265 263 261 260 261 262 265 264 262 265 265 265 264
272 276 276 276 276 276 276 276 275 274 273 271 270 269 269 269 267 265 265 269 271 270 268 267 265 260 261 259 259 258 258 259 259 259 259 261 262 263 262 261 263 262 260
268 271 272 271 271 271 272 272 272 271 269 267 267 270 274 266 264 263 262 261 261 260 260 258 256 254 253 252 253 253 254 255 254 255 256 258 260 258 260 262 260 260 259
268 266 266 269 269 268 267 268 267 267 265 265 264 265 269 263 262 260 259 256 252 251 251 253 253 251 251 251 251 251 252 252 252 255 256 256 257 258 258 258 257 259 257
264 264 265 265 266 266 265 265 265 264 262 262 262 261 260 259 258 258 254 251 251 252 251 250 249 250 247 247 247 249 251 251 253 255 254 254 255 256 256 256 256 255 256
265 265 265 264 264 264 263 263 263 262 261 260 259 259 258 257 256 253 253 253 251 251 249 246 246 246 246 245 244 244 244 245 245 247 248 250 250 253 254 254 256 255 255
263 262 262 262 262 262 261 260 260 259 259 259 258 257 256 255 255 254 252 248 248 247 248 247 244 245 245 245 245 245 245 253 247 247 245 247 248 247 247 249 252 253 255
261 261 261 261 260 260 260 260 259 258 258 257 255 254 255 255 252 249 249 250 252 251 249 246 245 245 245 246 247 250 251 256 252 251 245 245 246 247 248 250 253 253 254
Wind_Speed
5 5 6 6 6 6 6 6 6 6 7 8 9 10 10 10 10 10 11 10 12 11 11 12 14 13 8 9 8 8 8 7 8 1 2 3 11 12 10 8 7 7 6
5 5 6 6 5 6 7 7 6 7 6 8 7 8 8 9 9 11 12 10 12 12 12 12 14 10 12 11 9 11 10 8 4 4 3 2 5 11 10 9 7 5 5
5 6 7 7 6 7 7 7 6 7 7 6 7 7 7 7 8 9 10 10 11 12 12 12 13 10 11 8 9 9 7 6 4 4 3 2 2 7 4 3 4 4 4
5 6 8 7 7 7 6 7 6 6 7 7 7 7 7 6 6 6 6 7 8 8 8 9 10 12 12 11 10 10 9 8 3 3 3 4 2 3 4 5 3 3 5
7 7 10 6 6 6 6 6 6 6 6 7 6 6 5 6 6 7 6 7 7 6 5 5 6 8 11 12 8 8 9 8 6 7 3 3 3 4 8 3 5 2 4
7 8 6 6 6 7 6 6 6 6 6 6 7 7 7 6 12 14 9 7 7 7 7 5 5 7 10 15 14 15 12 9 9 4 3 5 3 3 3 4 3 3 3
7 8 7 6 6 7 6 6 7 7 6 7 6 6 7 6 13 13 14 7 8 9 9 8 7 7 9 9 14 16 15 17 11 9 9 5 5 6 7 5 5 3 3
8 7 6 5 6 6 6 6 5 4 6 5 6 6 6 6 11 13 13 7 6 7 7 7 8 8 9 9 7 6 7 10 9 5 6 6 5 8 8 5 6 3 1
7 7 6 4 5 4 4 4 3 3 2 3 3 4 6 5 12 14 11 6 6 6 5 7 8 8 14 16 10 10 9 5 8 10 10 14 14 13 10 6 4 3 3
7 6 6 5 5 5 5 4 3 3 5 4 4 5 6 5 11 13 13 5 5 3 3 4 9 7 16 17 9 10 9 8 7 5 5 7 9 11 18 8 6 4 3
7 7 5 3 4 4 3 3 3 3 3 3 3 2 3 4 5 13 15 6 5 5 4 3 3 10 13 17 14 8 9 7 11 4 3 3 3 6 6 7 8 6 5
5 5 6 6 5 1 3 1 1 2 3 4 3 1 1 1 6 10 13 13 10 5 5 4 5 14 15 19 14 17 11 7 4 5 4 4 4 5 5 6 6 6 6
5 6 5 5 4 3 1 0 2 2 0 1 2 2 1 0 2 8 9 16 14 5 4 8 13 15 16 16 17 17 12 5 5 4 5 4 5 5 3 2 3 3 2
6 5 4 4 4 4 2 2 2 0 0 0 1 2 1 0 2 1 0 7 11 6 8 5 7 8 8 8 5 11 5 4 5 4 3 3 3 3 4 4 4 4 3
4 4 4 2 3 2 1 2 2 3 3 2 2 2 2 2 3 5 4 4 5 6 5 2 2 2 3 2 2 3 3 3 4 3 3 3 4 4 5 4 3 2 4
6 3 3 2 1 0 0 2 4 5 6 8 6 4 2 4 3 7 10 8 13 14 3 2 1 3 4 3 3 3 2 2 2 3 4 4 4 4 4 3 2 3 5
7 4 2 3 2 2 1 0 1 1 3 6 6 4 2 1 5 8 10 11 12 13 3 2 2 3 3 4 4 4 4 4 3 4 4 4 3 4 5 5 4 3 2
7 7 3 2 3 2 0 1 2 1 3 3 8 7 8 7 3 7 9 7 2 4 2 3 3 3 3 3 3 4 3 3 2 2 2 3 4 3 2 4 5 3 3
3 2 3 1 1 5 2 2 1 3 3 2 3 7 9 9 12 13 6 3 2 3 3 3 2 2 2 1 1 0 1 1 1 1 1 2 2 3 2 2 3 4 4
3 3 4 2 3 4 3 3 3 3 3 3 2 2 3 4 4 4 5 3 4 4 4 3 3 3 3 3 2 2 2 1 1 1 1 1 1 1 2 2 3 3 3
1 2 5 4 3 3 3 3 3 3 3 3 3 3 6 4 3 4 3 4 4 4 3 3 3 3 3 3 3 2 1 1 0 1 1 1 2 2 1 1 2 2 2
3 2 2 4 4 3 4 4 4 4 4 3 2 5 10 4 4 3 3 3 2 2 1 2 1 1 1 1 1 1 1 2 2 1 2 2 1 1 2 2 2 2 3
3 2 3 5 5 5 5 4 4 4 3 3 2 3 3 3 3 3 2 2 2 2 2 2 2 2 2 1 1 2 2 3 3 2 3 3 2 3 3 2 2 1 2
4 4 5 5 4 4 4 4 4 5 4 3 2 2 3 3 3 3 2 2 2 2 2 1 1 2 3 3 2 2 2 3 2 3 4 3 3 3 3 3 3 3 2
5 5 5 4 4 4 3 3 3 3 3 2 1 1 1 1 1 2 2 2 3 3 3 2 2 4 5 6 5 5 5 6 3 3 2 3 4 4 3 3 3 2 3
5 5 4 3 4 3 2 2 2 2 1 0 0 1 1 2 2 2 3 3 4 3 4 3 4 6 6 5 7 7 7 7 5 5 4 3 3 3 3 3 5 2 4
Wind_Direction
231 233 227 225 217 212 218 223 207 188 191 194 198 207 210 210 210 212 216 206 209 211 210 211 216 216 204 199 195 187 194 191 218 155 161 180 185 188 189 189 186 193 207
240 236 242 243 218 225 227 221 213 211 201 201 192 197 205 215 213 218 223 215 209 211 211 212 216 207 208 203 198 197 197 185 135 137 172 143 193 194 179 176 186 193 183
249 244 245 237 225 228 229 217 211 213 206 197 193 202 203 207 212 218 222 219 219 221 217 213 216 198 206 197 198 196 185 167 141 151 143 135 156 171 150 151 176 185 202
260 259 260 244 231 233 230 224 215 209 205 201 202 206 209 209 216 219 224 229 229 231 224 216 213 202 206 188 185 178 166 164 149 133 168 158 125 119 144 166 184 196 216
254 249 250 253 235 239 234 228 226 208 209 205 198 207 203 203 207 208 210 226 229 226 220 218 210 210 202 193 181 173 164 162 157 171 155 137 138 144 186 163 195 143 227
285 268 275 258 243 238 241 231 217 222 212 194 205 205 206 213 214 217 206 205 209 206 207 190 173 171 187 190 189 176 166 159 165 137 136 168 152 144 142 158 138 161 242
308 295 279 258 244 241 230 214 218 215 191 210 216 207 220 218 219 220 216 202 203 206 203 189 183 184 178 182 185 173 182 196 195 175 162 169 138 170 147 163 179 174 179
301 297 296 276 259 261 232 228 220 202 207 206 206 201 201 216 220 223 218 197 211 215 207 194 188 173 180 171 167 158 172 187 177 152 143 146 165 161 180 167 179 183 103
303 307 299 282 273 266 243 229 179 166 192 209 223 201 206 214 213 219 211 188 202 201 191 185 181 173 183 172 160 164 164 145 156 142 142 159 168 173 171 149 165 158 228
312 308 303 285 246 243 232 205 194 185 199 186 199 206 215 220 216 216 212 175 194 155 114 140 167 168 180 180 171 163 165 174 159 154 163 163 182 195 191 193 162 192 185
313 316 319 315 282 279 247 178 181 191 146 169 195 189 203 219 233 223 215 173 171 148 154 149 162 192 192 186 167 171 181 174 199 162 131 155 166 189 208 203 197 196 201
316 314 318 318 310 229 184 293 348 144 157 165 163 200 243 229 228 229 224 177 166 164 183 165 176 182 186 182 167 188 200 163 166 148 169 184 187 203 213 212 205 210 223
325 318 315 316 322 342 47 116 56 12 46 197 153 176 196 308 285 237 232 171 166 160 169 186 189 194 190 196 183 196 195 162 156 163 181 196 203 206 202 192 226 229 151
302 301 305 318 326 346 9 31 59 110 291 290 152 201 220 221 242 228 52 170 167 169 183 188 192 185 182 184 194 197 194 172 170 195 185 191 153 166 200 185 190 179 150
270 264 264 265 286 297 278 225 214 218 201 185 229 187 172 234 246 219 169 161 157 151 113 83 109 123 146 141 132 143 131 142 193 167 179 178 202 197 215 181 161 152 183
274 247 242 242 242 317 25 329 227 205 200 215 199 168 230 246 219 194 193 177 157 152 82 106 104 125 149 169 161 138 145 189 205 219 227 213 202 205 204 163 146 172 191
286 225 205 186 151 147 104 22 322 33 97 123 132 115 227 257 151 165 174 174 180 165 117 151 149 158 157 172 179 186 205 205 192 202 205 205 194 201 186 186 186 161 162
263 232 173 189 137 105 63 314 322 80 73 24 46 65 66 62 133 156 166 151 181 162 82 151 167 160 157 180 191 195 200 194 197 206 192 191 197 164 161 188 189 172 164
284 128 125 121 219 123 155 128 56 71 54 45 19 40 21 44 49 44 76 79 102 70 53 60 48 74 77 93 5 30 102 160 168 140 226 171 170 147 180 174 168 171 149
345 76 112 117 132 127 111 103 89 79 75 54 46 2 330 28 33 19 28 31 83 85 82 77 54 49 52 50 52 71 64 88 130 161 207 169 165 159 165 165 174 169 187
66 83 102 82 62 43 59 83 75 84 80 54 11 326 56 72 61 54 52 37 38 50 55 50 46 47 36 44 50 41 29 309 292 208 178 208 167 193 175 142 136 135 123
359 28 46 96 82 84 85 76 80 83 77 70 15 25 65 53 62 65 56 49 29 48 33 74 77 66 70 92 145 145 225 253 266 242 235 212 186 168 142 141 165 168 170
24 11 58 72 82 89 78 76 85 93 98 79 56 49 42 53 50 59 45 345 10 14 11 37 53 7 342 332 218 177 180 232 233 204 212 213 193 189 174 176 159 149 160
36 43 55 62 65 66 75 86 87 86 90 78 63 52 52 35 28 16 357 343 338 341 329 329 357 271 280 282 275 257 230 234 211 210 195 184 205 194 165 170 181 178 166
39 44 56 62 64 72 80 80 88 89 86 85 79 63 63 43 354 335 314 310 306 291 290 286 260 261 266 280 283 279 261 277 229 209 173 179 200 189 175 173 168 178 177
58 48 47 56 73 82 88 100 90 84 88 61 288 298 311 324 319 305 291 287 281 287 290 275 266 268 271 266 265 265 255 256 244 217 180 171 187 203 167 187 199 181 191